Thomasville, GA

7:49 AM EDT on July 29, 2016 (GMT -0400)
Thomasville Municipal

Weather History for KTVI - August, 2014

Change the Weather History Date:

Sunday, August 24, 2014

  Actual Average (KVLD) Record (KVLD)
Temperature  
Mean Temperature 86 °F 81 °F  
Max Temperature 96 °F 91 °F 99 °F (2011)
Min Temperature 77 °F 71 °F 66 °F (2001)
Cooling Degree Days 22 16  
Month to date cooling degree days 391  
Year to date cooling degree days 1743  
Since 1 June cooling degree days 1331  
Growing Degree Days 36 (Base 50)    
Moisture  
Dew Point 74 °F    
Average Humidity 75    
Maximum Humidity 100    
Minimum Humidity 41    
Precipitation  
Precipitation 0.00 in 0.18 in 0.29 in (1950)
Month to date precipitation 4.24  
Year to date precipitation 35.93  
Sea Level Pressure  
Sea Level Pressure 29.89 in    
Wind  
Wind Speed 4 mph (NE)    
Max Wind Speed 20 mph    
Max Gust Speed 29 mph    
Visibility 10 miles    
Events      
T = Trace of Precipitation, MM = Missing Value Source: NWS Daily Summary

Daily Weather History Graph

Daily Weather History Graph

Search for Another Location

Airport or City:

Trip Planner

Search our weather history database for the weather conditions in past years. The results will help you decide how hot, cold, wet, or windy it might be!

Date:

Astronomy

Aug. 24, 2014 Rise Set
Actual Time 7:07 AM EDT 8:08 PM EDT
Civil Twilight 6:42 AM EDT 8:33 PM EDT
Nautical Twilight 6:12 AM EDT 9:02 PM EDT
Astronomical Twilight 5:42 AM EDT 9:32 PM EDT
Moon 6:16 AM EDT (8/24) 7:27 PM EDT (8/24)
Length of Visible Light 13h 50m
Length of Day
13h 01m
Waning Crescent, 1% of the Moon is Illuminated
Aug 24
Waning Crescent
Aug 25
New
Sep 2
First Quarter
Sep 8
Full
Sep 15
Last Quarter

Hourly Weather History & Observations

Time (EDT) Temp. Heat Index Dew Point Humidity Pressure Visibility Wind Dir Wind Speed Gust Speed Precip Events Conditions
12:15 AM 82.4 °F 88.2 °F 73.4 °F 74% 29.91 in 10.0 mi Calm Calm - N/A   Clear
12:35 AM 82.4 °F 88.2 °F 73.4 °F 74% 29.90 in 10.0 mi WNW 4.6 mph - N/A   Clear
12:55 AM 80.6 °F 85.4 °F 73.4 °F 79% 29.90 in 10.0 mi NW 3.5 mph - N/A   Clear
1:15 AM 80.6 °F 85.4 °F 73.4 °F 79% 29.89 in 10.0 mi NW 4.6 mph - N/A   Clear
1:35 AM 82.4 °F 88.2 °F 73.4 °F 74% 29.88 in 10.0 mi NW 3.5 mph - N/A   Clear
1:55 AM 80.6 °F 85.4 °F 73.4 °F 79% 29.88 in 10.0 mi SE 3.5 mph - N/A   Clear
2:15 AM 80.6 °F 85.4 °F 73.4 °F 79% 29.88 in 10.0 mi SE 3.5 mph - N/A   Clear
2:35 AM 78.8 °F - 73.4 °F 83% 29.87 in 10.0 mi Calm Calm - N/A   Clear
2:55 AM 78.8 °F - 75.2 °F 89% 29.87 in 10.0 mi Calm Calm - N/A   Clear
3:15 AM 80.6 °F 85.4 °F 73.4 °F 79% 29.87 in 10.0 mi Calm Calm - N/A   Clear
3:35 AM 78.8 °F - 77.0 °F 94% 29.86 in 10.0 mi Calm Calm - N/A   Clear
3:55 AM 77.0 °F - 77.0 °F 100% 29.86 in 10.0 mi Calm Calm - N/A   Clear
4:15 AM 77.0 °F - 77.0 °F 100% 29.85 in 10.0 mi Calm Calm - N/A   Clear
4:35 AM 77.0 °F - 77.0 °F 100% 29.85 in 10.0 mi Calm Calm - N/A   Clear
4:55 AM 77.0 °F - 77.0 °F 100% 29.86 in 7.0 mi Calm Calm - N/A   Clear
5:15 AM 77.0 °F - 77.0 °F 100% 29.86 in 10.0 mi Calm Calm - N/A   Clear
5:35 AM 77.0 °F - 77.0 °F 100% 29.86 in 10.0 mi Calm Calm - N/A   Clear
5:55 AM 77.0 °F - 77.0 °F 100% 29.86 in 10.0 mi Calm Calm - N/A   Clear
6:15 AM 77.0 °F - 77.0 °F 100% 29.86 in 10.0 mi Calm Calm - N/A   Clear
6:35 AM 77.0 °F - 77.0 °F 100% 29.88 in 10.0 mi NW 3.5 mph - N/A   Clear
6:55 AM 77.0 °F - 77.0 °F 100% 29.87 in 10.0 mi NW 4.6 mph - N/A   Clear
7:15 AM 77.0 °F - 77.0 °F 100% 29.87 in 10.0 mi NW 5.8 mph - N/A   Clear
7:35 AM 77.0 °F - 77.0 °F 100% 29.88 in 10.0 mi NW 3.5 mph - N/A   Clear
7:55 AM 78.8 °F - 77.0 °F 94% 29.88 in 10.0 mi Calm Calm - N/A   Clear
8:15 AM 78.8 °F - 77.0 °F 94% 29.88 in 10.0 mi Calm Calm - N/A   Clear
8:35 AM 80.6 °F 86.2 °F 75.2 °F 84% 29.89 in 10.0 mi North 3.5 mph - N/A   Clear
8:55 AM 82.4 °F 88.2 °F 73.4 °F 74% 29.89 in 10.0 mi North 3.5 mph - N/A   Clear
9:15 AM 82.4 °F 88.2 °F 73.4 °F 74% 29.89 in 10.0 mi NNW 4.6 mph - N/A   Clear
9:35 AM 86.0 °F 93.4 °F 73.4 °F 66% 29.89 in 10.0 mi North 4.6 mph - N/A   Clear
9:55 AM 86.0 °F 93.4 °F 73.4 °F 66% 29.90 in 10.0 mi NNW 4.6 mph - N/A   Clear
10:15 AM 86.0 °F 93.4 °F 73.4 °F 66% 29.90 in 10.0 mi NNW 3.5 mph - N/A   Clear
10:35 AM 87.8 °F 97.6 °F 75.2 °F 66% 29.90 in 10.0 mi NNE 3.5 mph - N/A   Clear
10:55 AM 89.6 °F 99.8 °F 75.2 °F 62% 29.90 in 10.0 mi North 4.6 mph - N/A   Clear
11:15 AM 89.6 °F 98.2 °F 73.4 °F 59% 29.90 in 10.0 mi NNW 3.5 mph - N/A   Clear
11:35 AM 91.4 °F 100.1 °F 73.4 °F 55% 29.89 in 10.0 mi NNW 5.8 mph - N/A   Clear
11:55 AM 93.2 °F 102.4 °F 73.4 °F 52% 29.89 in 10.0 mi North 5.8 mph - N/A   Scattered Clouds
12:15 PM 93.2 °F 102.4 °F 73.4 °F 52% 29.89 in 10.0 mi Calm Calm - N/A   Scattered Clouds
12:35 PM 95.0 °F 104.5 °F 73.4 °F 49% 29.89 in 10.0 mi NNE 6.9 mph - N/A   Clear
12:55 PM 95.0 °F 103.2 °F 71.6 °F 47% 29.89 in 10.0 mi NE 8.1 mph - N/A   Clear
1:15 PM 93.2 °F 102.4 °F 73.4 °F 52% 29.88 in 10.0 mi NNE 5.8 mph - N/A   Scattered Clouds
1:35 PM 91.4 °F 98.4 °F 71.6 °F 52% 29.88 in 10.0 mi NE 6.9 mph - N/A   Mostly Cloudy
1:55 PM 95.0 °F 104.5 °F 73.4 °F 49% 29.88 in 10.0 mi NNE 9.2 mph - N/A   Scattered Clouds
2:15 PM 96.8 °F 105.1 °F 71.6 °F 44% 29.86 in 10.0 mi North 9.2 mph - N/A   Scattered Clouds
2:35 PM 96.8 °F 105.1 °F 71.6 °F 44% 29.85 in 10.0 mi NNE 8.1 mph - N/A   Clear
2:55 PM 96.8 °F 103.1 °F 69.8 °F 41% 29.85 in 10.0 mi ENE 10.4 mph - N/A   Clear
3:15 PM 96.8 °F 105.1 °F 71.6 °F 44% 29.85 in 10.0 mi ENE 12.7 mph - N/A   Scattered Clouds
3:35 PM 91.4 °F 100.1 °F 73.4 °F 55% 29.86 in 10.0 mi East 19.6 mph 28.8 mph N/A   Scattered Clouds
3:55 PM 87.8 °F 92.6 °F 69.8 °F 55% 29.86 in 10.0 mi East 10.4 mph - N/A   Scattered Clouds
4:15 PM 86.0 °F 91.8 °F 71.6 °F 62% 29.86 in 10.0 mi ENE 15.0 mph 18.4 mph N/A   Scattered Clouds
4:35 PM 84.2 °F 89.6 °F 71.6 °F 66% 29.87 in 10.0 mi East 10.4 mph - N/A   Scattered Clouds
4:55 PM 84.2 °F 89.6 °F 71.6 °F 66% 29.88 in 10.0 mi East 8.1 mph 16.1 mph N/A   Clear
5:15 PM 82.4 °F 87.2 °F 71.6 °F 70% 29.88 in 10.0 mi East 10.4 mph - N/A   Clear
5:35 PM 82.4 °F 87.2 °F 71.6 °F 70% 29.88 in 10.0 mi East 8.1 mph - N/A   Scattered Clouds
5:55 PM 84.2 °F 90.9 °F 73.4 °F 70% 29.86 in 10.0 mi East 6.9 mph - N/A   Clear
6:15 PM 84.2 °F 90.9 °F 73.4 °F 70% 29.86 in 10.0 mi East 8.1 mph - N/A   Clear
6:35 PM 84.2 °F 90.9 °F 73.4 °F 70% 29.86 in 10.0 mi East 9.2 mph - N/A   Clear
6:55 PM 84.2 °F 90.9 °F 73.4 °F 70% 29.86 in 10.0 mi East 4.6 mph - N/A   Clear
7:15 PM 84.2 °F 90.9 °F 73.4 °F 70% 29.88 in 10.0 mi East 5.8 mph - N/A   Clear
7:35 PM 82.4 °F 88.2 °F 73.4 °F 74% 29.89 in 10.0 mi East 3.5 mph - N/A   Clear
7:55 PM 82.4 °F 88.2 °F 73.4 °F 74% 29.89 in 10.0 mi East 5.8 mph - N/A   Clear
8:15 PM 82.4 °F 89.5 °F 75.2 °F 79% 29.89 in 10.0 mi East 4.6 mph - N/A   Clear
8:35 PM 80.6 °F 86.2 °F 75.2 °F 84% 29.90 in 10.0 mi East 3.5 mph - N/A   Clear
8:55 PM 80.6 °F 87.1 °F 77.0 °F 89% 29.91 in 10.0 mi East 5.8 mph - N/A   Clear
9:15 PM 80.6 °F 87.1 °F 77.0 °F 89% 29.92 in 10.0 mi East 4.6 mph - N/A   Clear
9:35 PM 80.6 °F 86.2 °F 75.2 °F 84% 29.93 in 10.0 mi East 6.9 mph - N/A   Clear
9:55 PM 80.6 °F 86.2 °F 75.2 °F 84% 29.93 in 10.0 mi ENE 4.6 mph - N/A   Scattered Clouds
10:15 PM 80.6 °F 86.2 °F 75.2 °F 84% 29.93 in 10.0 mi ENE 4.6 mph - N/A   Mostly Cloudy
10:35 PM 80.6 °F 85.4 °F 73.4 °F 79% 29.94 in 10.0 mi East 6.9 mph - N/A   Mostly Cloudy
10:55 PM 80.6 °F 85.4 °F 73.4 °F 79% 29.94 in 10.0 mi East 5.8 mph - N/A   Overcast
11:15 PM 80.6 °F 85.4 °F 73.4 °F 79% 29.95 in 10.0 mi East 6.9 mph - N/A   Mostly Cloudy
11:35 PM 80.6 °F 85.4 °F 73.4 °F 79% 29.95 in 10.0 mi East 6.9 mph - N/A   Mostly Cloudy
11:55 PM 80.6 °F 84.6 °F 71.6 °F 74% 29.96 in 10.0 mi East 5.8 mph - N/A   Clear